weather.gov     
National Weather Service

Regional Weather Roundup
NWS Homepage
This page is being discontinued on March 12, 2014.
The same data is available at this site. Please update your bookmarks.
Thank you, and we apologize for the inconvenience.
Please send an email to SR-SRH.Webmaster@noaa.gov with any concerns.


Current Version
Previous Version:    01  02  03  04  05  06  07  08  09  10  11  12  13  14  15  16  17  18  19  20  21  22  23  24  25  26  27  28  29  30  
   31  32  33  34  35  36  37  38  39  40  41  42  43  44  45  46  47  48  49  50  51  52  53  54  55  56  57  58  59  60  
[Printable]
732
ASUS43 KJKL 261819
RWRJKL

EAST KENTUCKY HOURLY WEATHER ROUNDUP
NATIONAL WEATHER SERVICE JACKSON KY
100 PM EST WED NOV 26 2014

NOTE: "FAIR" INDICATES FEW OR NO CLOUDS BELOW 12,000 FEET WITH
NO SIGNIFICANT WEATHER AND/OR OBSTRUCTIONS TO VISIBILITY.

* THESE REPORTS ARE NOT UNDER NWS QUALITY CONTROL AND MAY NOT
  REPORT WEATHER SUCH AS PRECIPITATION AND FOG.

KYZ079-080-083-085-087-088-110-112-115-119-120-261900
...EASTERN KENTUCKY...

CITY           SKY/WX    TMP DP  RH WIND       PRES   REMARKS
JACKSON        MOSUNNY   46  29  51 VRB3      30.02F
6HR MIN TEMP:  33; 6HR MAX TEMP:  47;

LONDON         SUNNY     46  28  49 SW8       30.03F
6HR MIN TEMP:  35; 6HR MAX TEMP:  47;

SOMERSET*      SUNNY     43  28  56 SW3       30.07F
MONTICELLO*    SUNNY     47  28  47 SW6       30.08F
6HR MIN TEMP:  28; 6HR MAX TEMP:  47;

HARLAN APT*    MOCLDY    50  28  43 W8        29.99F
BLACK MTN*       N/A     34  30  86 CALM        N/A
PIKEVILLE APT* CLOUDY    43  32  65 SW3       30.00F
BIG SANDY*     PTCLDY    44  32  63 CALM      30.02F
6HR MIN TEMP:  36; 6HR MAX TEMP:  44;

MOREHEAD APT*  PTCLDY    43  30  61 NW6       30.05F
ASHLAND*       SUNNY     43  28  56 CALM      30.02F
$$

KYZ035-036-041-042-044-050-067-078-099-261900
...CENTRAL KENTUCKY...

CITY           SKY/WX    TMP DP  RH WIND       PRES   REMARKS
MT STERLING*   SUNNY     39  30  70 CALM      30.06F
FLEMING/MASON* SUNNY     39  28  65 CALM      30.06F
DANVILLE*      SUNNY     37  32  81 CALM      30.07F
RICHMOND*      SUNNY     41  30  65 CALM      30.06F
LEXINGTON      PTSUNNY   43  31  62 CALM      30.06F
6HR MIN TEMP:  26; 6HR MAX TEMP:  43;

FRANKFORT      SUNNY     41  29  62 VRB3      30.06F
6HR MIN TEMP:  25; 6HR MAX TEMP:  41;

$$

KYZ091>093-OHZ055-061-077-WVZ005-015-034-035-042-261900
...SOUTHERN OHIO/WEST VIRGINIA...

CITY           SKY/WX    TMP DP  RH WIND       PRES   REMARKS
COVINGTON      CLOUDY    36  27  69 NE3       30.07F
COLUMBUS       CLOUDY    36  27  69 N6        30.06F WCI  31
DAYTON         CLOUDY    32  25  75 NW5       30.09F WCI  27
WILMINGTON     CLOUDY    33  26  75 NE6       30.06F WCI  28
HUNTINGTON     MOSUNNY   42  31  64 CALM      30.03F
CHARLESTON     LGT RAIN  35  33  92 CALM      30.03F VSB 1
PINEVILLE*     CLOUDY    38  38 100 MISG      30.05F
BECKLEY        CLOUDY    35  33  92 W5        29.96S FOG     WCI  31
BLUEFIELD      CLOUDY    37  32  82 W6        29.96F WCI  32
$$

VAZ002-007-008-TNZ017-027-036-066-071-261900
...SOUTHWEST VIRGINIA/EAST TENNESSEE...

CITY           SKY/WX    TMP DP  RH WIND       PRES   REMARKS
WISE*          CLOUDY    41  37  87 W7        29.98F
JONESVILLE*    PTCLDY    48  28  46 SW3       30.02F
ABINGDON*      DRIZZLE   40  38  93 W6        30.00F
BRISTOL        CLOUDY    42  39  89 W6        30.02F
KNOXVILLE      MOSUNNY   49  32  52 S5        30.05F
OAK RIDGE      SUNNY     52  27  38 VRB3      30.05F
CROSSVILLE     SUNNY     44  23  43 VRB5      30.05F
NASHVILLE      MOSUNNY   47  19  33 S5        30.10F
$$

...KEY TO REMARKS...
VSB - VISIBILITY IN MILES
WCI - WIND CHILL INDEX
HX  - HEAT INDEX

$$




U.S. Dept. of Commerce
NOAA National Weather Service
1325 East West Highway
Silver Spring, MD 20910
E-mail: w-nws.webmaster@noaa.gov
Page last modified: May 16, 2007
NATIONAL WEATHER SERVICE: for Safety, for Work, for Fun - FOR LIFE